Hourly Data Report for October 21, 2013

All times are specified in Local Standard Time (LST). Add 1 hour to adjust for Daylight Saving Time where and when it is observed.

PENTICTON A
BRITISH COLUMBIA

49°27'45.000" N
119°36'08.000" W
344.40 m
1126146
71889
YYF

Download Data

Hourly Data (October 2013)
Hourly Data Report for October 21, 2013
Temp Definition
°C
Dew Point Temp Definition
°C
Rel Hum Definition
%
Wind Dir Definition
10's deg

Wind Spd Definition
km/h
Visibility Definition
km
Stn Press Definition
kPa
Hmdx Definition


Wind Chill Definition


Weather Definition


TIME
00:00 Legend Double Dagger 5.7 4.2 90 2 10 24.1 98.17     LegendNANA
01:00 Legend Double Dagger 5.4 4.1 91 2 10 24.1 98.23     Clear
02:00 Legend Double Dagger 4.3 3.1 92 36 8 24.1 98.26     LegendNANA
03:00 Legend Double Dagger 4.1 2.8 91 1 11 24.1 98.26     LegendNANA
04:00 Legend Double Dagger 4.5 3.3 92 5 8 24.1 98.22     Clear
05:00 Legend Double Dagger 3.8 2.8 93 36 10 24.1 98.28     LegendNANA
06:00 Legend Double Dagger 3.5 2.6 94 36 8 24.1 98.24     LegendNANA
07:00 Legend Double Dagger 3.9 2.9 93 33 8 24.1 98.35     Mainly Clear
08:00 Legend Double Dagger 9.5 7.6 88 31 7 16.1 98.34     LegendNANA
09:00 Legend Double Dagger 9.9 7.5 85 36 11 24.1 98.35     LegendNANA
10:00 Legend Double Dagger 11.2 7.4 77 36 15 24.1 98.35     Mainly Clear
11:00 Legend Double Dagger 12.0 7.4 73 1 10 24.1 98.28     LegendNANA
12:00 Legend Double Dagger 12.7 7.8 72 34 14 24.1 98.22     LegendNANA
13:00 Legend Double Dagger 12.7 7.8 72 35 15 24.1 98.17     Mainly Clear
14:00 Legend Double Dagger 13.3 6.9 65 34 15 24.1 98.13     LegendNANA
15:00 Legend Double Dagger 13.6 7.4 66 1 13 24.1 98.10     LegendNANA
16:00 Legend Double Dagger 11.0 7.2 77 32 9 24.1 98.06     Mainly Clear
17:00 Legend Double Dagger 8.7 5.8 82 34 8 24.1 98.07     LegendNANA
18:00 Legend Double Dagger 6.6 5.4 92 22 1 24.1 98.09     LegendNANA
19:00 Legend Double Dagger 6.2 4.0 86 36 1 24.1 98.09     Clear
20:00 Legend Double Dagger 4.1 3.4 95 4 3 24.1 98.11     Fog
21:00 Legend Double Dagger 4.3 3.6 95 36 4 24.1 98.17     LegendNANA
22:00 Legend Double Dagger 2.3 1.3 93 33 6 24.1 98.20     Clear
23:00 Legend Double Dagger 2.3 1.4 94 35 9 24.1 98.23     LegendNANA

Notes on Data Quality.

Legend

  • E = Estimated
  • M = Missing
  • NA = Not Available
  • ‡ = Partner data that is not subject to review by the National Climate Archives
Date modified: